User: anonymous   Login
Location: Nebula Knoll Observatory
(43.6666°N, 71.0000°W)
Time: 09:27:29
(UTC-05:00)
Language:

Cosmos 1782 - Orbit

View from above orbital plane
View from above orbital plane
View from above satellite
View from above satellite

Ground track
Ground track

The orbit data is extracted from the following two-line orbital elements,

1 16986U 86074A   14326.12996092  .00004695  00000-0  34059-3 0  9032
2 16986 082.5067 312.4622 0010135 306.6326 053.3967 15.03680222529701
Epoch (UTC): 22 November 2014 03:07:08
Eccentricity: 0.0010135
inclination: 82.5067°
perigee height: 548 km
apogee height: 562 km
right ascension of ascending node: 312.4622°
argument of perigee: 306.6326°
revolutions per day: 15.03680222
mean anomaly at epoch: 53.3967°
orbit number at epoch: 52970

The dashed part of the orbit path shows where the satellite is in the earth's shadow,  

DLR